DECAYED

OBJECT XD, 62297 (Decayed)

Orbit data source: Space-Track

You're viewing an Uncataloged Satellite

Recently launched and/or uncataloged satellites may have evolving metadata. Metadata may include but not limited to: Owner, Maufacturer, Bus, Motor, and Mission.

OBJECT XD, 62297 was a Japanese satellite in LEO that was delivered to and deployed from the ISS. Unknown objects in Earth's orbit typically refer to objects detected orbiting the Earth but have not yet been identified or cataloged. These objects could be anything from previously untracked satellites, spent rocket stages, debris from satellite collisions, or even natural meteoroids temporarily captured by Earth's gravity. This object's orbit decayed before it could be identified.

Not visible in the next 10 days
Identifier
62297, 1998-067XD
Orbit
Decayed
Country
Flag of JPJP / JPN
Related business
None
Manufacturer
Unknown
Mission
Decayed Amateur Technology
Bus & Motor
Unknown
Mass
Unknown
Launch date (UTC)
1998-11-20 (27 years ago)
Launch vehicle
FALCON 9
Launch site
Tyuratam Missile And Space Complex (TTMTR)
Object type
Unknown
Shape & HBR
Box, 0.1 m
Radar Cross Section
0.015 m², Medium (>0.1 m² and < 1m²)

Expand to show TLE details & history
Last TLE update: 9 months ago

TLE from 9 months ago
0 OBJECT XD
1 62297U 98067XD  25064.26411513  .04593247  11898-4  22015-2 0  9993
2 62297  51.6147  89.8286 0005059  24.8961 335.2301 16.20565003 13483
Epoch: 2025-03-05T06:20Z
TLE epoch observation values (Epoch: 2025-03-05T06:20:19.547Z)
Latitude
0.00003°
Longitude
-168.5085°
Altitude
215.749 km
Speed
7.78 km/s
True Right ascension
05h 59m 18s
True Declination
0° 00' 00"
Sunlit
Object was in daylight at epoch
Visualization orbit readout
Latitude
Unknown
Longitude
Unknown
Altitude
Unknown
Speed
Unknown
Apparent Right ascension
Unknown
Apparent Declination
Unknown
Sunlit
N/A
Visualization observer readout
Local Sidereal Time
05:11:26
Azimuth
Unknown
Elevation
Unknown
Doppler factor
Unknown
Orbital elements
Apogee altitude
221.883 km
Perigee altitude
215.208 km
Semi-major axis
6,596.683 km
Eccentricity
0.00051
Inclination
51.6147°
RAAN
89.8286°
Arg. of periapsis
24.8961°
True anomaly
335.2058°
Mean anomaly
335.2301°
Eccentric anomaly
335.21795°
Mean motion
4.05093 °/min
Orbital period
88.87 mins
BSTAR
0.0022015
Loading maneuver chart data...
Computing Atmospheric mass density...
Loading historical data...
Loading historical data...
Loading historical data...
Loading historical data...
Loading historical data...
Loading historical data...
Loading historical data...

Documentation

Showing up to 5 results
|